Vertical_Velocity
-2 -3 -0 0 -0 2 2 3 4 5 5 5 -1 -4 -5 -2 -1 -2 -1 -0 -3 2
0 -3 -4 -3 -3 -3 -1 -3 -0 1 2 3 3 3 2 -5 -1 -4 -1 -2 -1 -6
1 -1 -4 -5 -1 -4 -4 -2 -2 -2 -1 2 2 3 -1 4 7 -4 3 3 -4 -3
-1 -2 -3 -4 -2 -7 -5 -4 -6 -4 -3 0 1 6 1 0 3 -1 2 2 3 5
-3 -4 -2 -1 -2 -3 -3 -2 -8 -7 -10 -6 -4 -1 -4 -0 -2 -4 -0 6 -6 2
-5 -6 -3 -3 -4 -2 -3 -0 2 -3 -4 -4 -3 -4 -3 -5 -1 -4 -5 -3 -2 6
-5 -6 -6 -5 -3 -4 -3 -7 -5 -2 -4 -3 -1 -3 -2 -3 -1 -1 -3 -1 -7 -1
-4 -6 -6 -4 -4 -4 -2 -4 -5 -6 -4 -3 -6 -0 1 -1 -1 -1 -1 -3 -5 -1
-4 -5 -2 -1 -3 -1 -2 -2 -5 0 -4 -3 -3 1 -2 -4 -1 0 -2 -1 -3 -3
-4 -3 0 -4 -3 -3 -3 -5 -3 -3 -5 -3 -2 2 -1 0 -6 -4 -1 0 0 -2
-4 -3 -1 -2 -3 -0 -9 -3 -3 -1 -1 -8 6 1 -2 -0 -6 -5 3 3 1 -4
-5 -0 -2 1 -3 -2 -4 1 -1 0 -0 -5 0 -1 2 -3 -3 -1 1 -1 -4 -8
-3 -5 -1 -3 -0 1 4 7 4 3 -5 -3 -6 7 3 -1 -6 -1 4 -4 -2 -5
-1 -1 -3 0 -1 2 5 0 -4 -7 -2 2 1 1 1 -1 -2 4 0 0 0 2
Height
5609 5604 5601 5598 5595 5593 5590 5589 5588 5588 5586 5587 5588 5588 5588 5592 5596 5599 5606 5613 5619 5625
5583 5577 5572 5567 5563 5560 5557 5556 5555 5554 5555 5555 5557 5559 5561 5563 5565 5569 5576 5583 5591 5600
5557 5549 5542 5536 5530 5524 5521 5517 5516 5515 5515 5518 5520 5522 5524 5531 5534 5537 5544 5551 5558 5568
5528 5517 5509 5501 5493 5485 5481 5475 5472 5470 5471 5474 5475 5477 5482 5490 5496 5503 5509 5516 5524 5535
5495 5484 5474 5465 5458 5451 5446 5441 5435 5431 5429 5429 5430 5431 5435 5441 5450 5460 5470 5480 5487 5502
5462 5451 5443 5436 5430 5424 5418 5415 5410 5404 5401 5399 5397 5395 5398 5401 5407 5414 5425 5438 5450 5465
5436 5428 5421 5415 5408 5402 5395 5390 5384 5378 5374 5373 5371 5371 5373 5374 5376 5380 5387 5396 5408 5423
5419 5412 5404 5396 5389 5381 5374 5367 5361 5355 5349 5345 5340 5342 5342 5345 5350 5355 5361 5368 5376 5387
5404 5396 5386 5378 5371 5365 5359 5352 5345 5338 5331 5326 5321 5318 5313 5313 5319 5327 5336 5347 5354 5363
5388 5381 5373 5366 5359 5352 5345 5337 5330 5323 5315 5310 5304 5299 5294 5292 5289 5298 5311 5324 5334 5343
5376 5370 5363 5355 5347 5338 5330 5322 5315 5308 5301 5294 5290 5283 5278 5274 5272 5275 5286 5300 5312 5323
5368 5361 5352 5343 5334 5326 5318 5310 5302 5294 5287 5280 5276 5268 5263 5260 5260 5264 5271 5279 5290 5302
5359 5350 5341 5333 5326 5317 5308 5299 5290 5282 5275 5267 5262 5256 5251 5247 5248 5254 5260 5265 5273 5282
5351 5341 5333 5327 5320 5311 5302 5292 5282 5273 5265 5258 5250 5244 5240 5237 5240 5247 5250 5255 5260 5269